Read MPEC 2002-A91
Read MPEC 2002-A93
M.P.E.C. 2002-A92 Issued 2002 Jan. 15, 20:10 UT
The Minor Planet Electronic Circulars contain information on unusual
minor planets and routine data on comets. They are published
on behalf of Commission 20 of the International Astronomical Union by the
Minor Planet Center, Smithsonian Astrophysical Observatory,
Cambridge, MA 02138, U.S.A.
Prepared using the Tamkin Foundation Computer Network
MPC@CFA.HARVARD.EDU
URL http://cfa-www.harvard.edu/iau/mpc.html ISSN 1523-6714
2002 AA29
Observations:
K02A29A* C2002 01 09.47884 12 13 19.12 +19 01 30.4 19.8 704
K02A29A C2002 01 09.49468 12 13 28.40 +19 05 03.3 20.0 704
K02A29A C2002 01 09.50976 12 13 37.33 +19 08 23.9 20.1 704
K02A29A C2002 01 09.52481 12 13 45.85 +19 11 45.0 19.8 704
K02A29A C2002 01 09.53997 12 13 54.76 +19 15 05.8 20.3 704
K02A29A C2002 01 11.42876 12 35 15.83 +26 04 20.2 19.5 704
K02A29A C2002 01 11.44400 12 35 25.30 +26 07 35.0 19.9 704
K02A29A C2002 01 11.45927 12 35 34.78 +26 10 48.2 19.4 704
K02A29A C2002 01 11.47481 12 35 44.30 +26 14 06.7 19.7 704
K02A29A C2002 01 12.38082 12 46 22.69 +29 19 10.5 19.3 704
K02A29A C2002 01 12.39638 12 46 32.79 +29 22 24.1 20.6 704
K02A29A C2002 01 12.41182 12 46 42.77 +29 25 32.8 20.3 704
K02A29A C2002 01 12.42730 12 46 52.64 +29 28 43.0 19.8 704
K02A29A C2002 01 12.44268 12 47 02.52 +29 31 49.5 20.3 704
K02A29A C2002 01 15.48369 13 23 27.16 +38 38 06.3 19.3 R 649
K02A29A C2002 01 15.48587 13 23 28.57 +38 38 27.8 19.3 R 649
K02A29A C2002 01 15.48809 13 23 30.01 +38 38 48.4 19.4 R 649
Observer details:
649 Powell Observatory, Louisburg. Observers K. Smalley, R. Fredrick,
R. Trentman. 0.75-m Newtonian + CCD.
704 Lincoln Laboratory ETS, New Mexico. Observers M. Blythe, F. Shelly,
M. Bezpalko, R. Huber, L. Manguso, S. Adams, J. Piscitelli. Measurers
J. Stuart, R. Sayer, J. B. Evans, H. Viggh. 1.0-m f/2.15 reflector + CCD.
Orbital elements:
2002 AA29
Epoch 2002 Jan. 6.0 TT = JDT 2452280.5 MPC
M 268.67989 (2000.0) P Q
n 0.98469987 Peri. 93.50319 -0.92083603 +0.34827418
a 1.0006145 Node 106.93919 -0.38872026 -0.85552291
e 0.0120118 Incl. 10.56540 +0.03094456 -0.38312615
P 1.00 H 23.9 G 0.15
From 15 observations 2002 Jan. 9-15.
Ephemeris:
2002 AA29 a,e,i = 1.00, 0.01, 11 q = 0.9886
Date TT R. A. (2000) Decl. Delta r Elong. Phase V
2002 01 06 11 37.45 +06 11.2 0.043 1.001 113.0 64.7 19.4
2002 01 11 12 30.25 +24 34.2 0.043 1.000 111.6 66.1 19.4
2002 01 16 13 29.71 +39 57.9 0.048 0.999 107.2 70.2 19.8
2002 01 21 14 29.66 +49 44.2 0.058 0.998 102.3 74.4 20.3
2002 01 26 15 23.56 +55 04.2 0.069 0.997 98.4 77.7 20.8
2002 01 31 16 08.20 +57 48.4 0.082 0.996 95.3 80.1 21.2
2002 02 05 16 43.77 +59 11.4 0.094 0.995 92.8 81.8 21.6
2002 02 10 17 11.84 +59 53.4 0.107 0.994 90.8 83.0 21.9
2002 02 15 17 34.13 +60 13.8 0.119 0.993 89.2 83.9 22.2
Timothy B. Spahr (C) Copyright 2002 MPC M.P.E.C. 2002-A92
Read MPEC 2002-A91
Read MPEC 2002-A93
Our Web policy. Index to the CBAT/MPC/ICQ pages.